{"data":{"norad_id":55619,"intl_designator":"2023-020BC","name":"STARLINK-5720","alt_names":[],"object_type":"PAYLOAD","status":"ACTIVE","operator":null,"country":"US","launch_date":"2023-02-12","launch_site_code":"AFETR","launch_vehicle":null,"mission":null,"orbit_class":"UNKNOWN","rcs_meters":null,"size_class":null,"mass_kg":null,"dimensions":null,"purposes":["comms"],"wikipedia_slug":null,"has_3d_model":false,"image_url":null,"decayed_at":null,"tle_current":{"epoch":"2026-05-25T01:59:23.277120Z","epoch_age_seconds":61266,"freshness":"FRESH","line1":"1 55619U 23020BC  26145.08290830 -.00000242  00000+0  71678-6 0  9994","line2":"2 55619  43.0020 282.7123 0000994 275.7296  84.3442 15.27575614180717","mean_motion":15.27575614,"eccentricity":9.94e-5,"inclination_deg":43.002,"raan_deg":282.7123,"arg_perigee_deg":275.7296,"mean_anomaly_deg":84.3442,"bstar":7.1678e-7,"rev_number":18071,"period_min":94.267019373877,"perigee_km":482.38022612954,"apogee_km":483.74423253633,"semimajor_km":6861.1992293329,"source":"CELESTRAK","updated_at":"2026-05-25T13:38:17.845322Z"}}}